,,,PA_Meas_PMT16A,,PR_Meas_QMR101_102,,RH_Meas_QMH101,,SR_Meas_QMS101,,TA_Meas_QMH101,,GenWind,,GenWind,
date,time,status,PA,status,PR,status,RH,status,SR,status,TA,status,DirAvg,status,SpdAvg,
2012-07-21, 00:00:04,VALID,1011.45,VALID,0,VALID,104,VALID,0,VALID,24.2591,VALID,8,VALID,0.421875,
2012-07-21, 00:01:04,VALID,1011.45,VALID,0,VALID,104,VALID,0.112112,VALID,24.2591,VALID,8,VALID,0.382813,
2012-07-21, 00:02:04,VALID,1011.46,VALID,0,VALID,104,VALID,0,VALID,24.2591,VALID,8,VALID,0.296875,
2012-07-21, 00:03:04,VALID,1011.45,VALID,0,VALID,104,VALID,0.112112,VALID,24.2786,VALID,8,VALID,0.388672,
2012-07-21, 00:04:04,VALID,1011.43,VALID,0,VALID,104,VALID,0.112112,VALID,24.3176,VALID,8,VALID,0.386719,
2012-07-21, 00:05:04,VALID,1011.43,VALID,0,VALID,104,VALID,0.112112,VALID,24.3371,VALID,8,VALID,0.335547,
2012-07-21, 00:06:04,VALID,1011.42,VALID,0,VALID,104,VALID,0,VALID,24.3371,VALID,8,VALID,0.0535156,
2012-07-21, 00:07:04,VALID,1011.4,VALID,0,VALID,104,VALID,0.112112,VALID,24.3566,VALID,8,VALID,0,
2012-07-21, 00:08:04,VALID,1011.37,VALID,0,VALID,104,VALID,0,VALID,24.3352,VALID,8,VALID,0,
2012-07-21, 00:09:04,VALID,1011.39,VALID,0,VALID,104,VALID,0,VALID,24.3566,VALID,8,VALID,0,
2012-07-21, 00:10:04,VALID,1011.36,VALID,0,VALID,104,VALID,0,VALID,24.3566,VALID,8,VALID,0,
2012-07-21, 00:11:04,VALID,1011.34,VALID,0,VALID,104,VALID,0.112112,VALID,24.3566,VALID,8,VALID,0,
2012-07-21, 00:12:04,VALID,1011.34,VALID,0,VALID,104,VALID,0,VALID,24.3761,VALID,8,VALID,0,
2012-07-21, 00:13:04,VALID,1011.33,VALID,0,VALID,104,VALID,0,VALID,24.3761,VALID,8,VALID,0,
2012-07-21, 00:14:04,VALID,1011.31,VALID,0,VALID,104,VALID,0,VALID,24.3566,VALID,8,VALID,0,
2012-07-21, 00:15:04,VALID,1011.29,VALID,0,VALID,104,VALID,0.112112,VALID,24.3566,VALID,8,VALID,0,
2012-07-21, 00:16:04,VALID,1011.32,VALID,0,VALID,104,VALID,0.112112,VALID,24.3371,VALID,8,VALID,0,
2012-07-21, 00:17:04,VALID,1011.33,VALID,0,VALID,104,VALID,0.112112,VALID,24.3566,VALID,8,VALID,0,
2012-07-21, 00:18:04,VALID,1011.33,VALID,0,VALID,104,VALID,0.112112,VALID,24.3176,VALID,8,VALID,0,
2012-07-21, 00:19:04,VALID,1011.33,VALID,0,VALID,104,VALID,0.112112,VALID,24.3158,VALID,8,VALID,0.166016,
2012-07-21, 00:20:04,VALID,1011.31,VALID,0,VALID,104,VALID,0.112112,VALID,24.3547,VALID,8,VALID,0.39375,
2012-07-21, 00:21:04,VALID,1011.32,VALID,0,VALID,104,VALID,0.112112,VALID,24.3352,VALID,8,VALID,0.0996094,
2012-07-21, 00:22:04,VALID,1011.33,VALID,0,VALID,104,VALID,0.112112,VALID,24.3352,VALID,8,VALID,0,
2012-07-21, 00:23:04,VALID,1011.32,VALID,0,VALID,104,VALID,0,VALID,24.3158,VALID,8,VALID,0,
2012-07-21, 00:24:04,VALID,1011.31,VALID,0,VALID,104,VALID,0.112112,VALID,24.3158,VALID,8,VALID,0.00898437,
2012-07-21, 00:25:04,VALID,1011.31,VALID,0,VALID,104,VALID,0,VALID,24.3352,VALID,8,VALID,0,
2012-07-21, 00:26:04,VALID,1011.29,VALID,0,VALID,104,VALID,0.112112,VALID,24.3352,VALID,8,VALID,0,
2012-07-21, 00:27:04,VALID,1011.27,VALID,0,VALID,104,VALID,0.112112,VALID,24.3547,VALID,8,VALID,0,
2012-07-21, 00:28:04,VALID,1011.25,VALID,0,VALID,104,VALID,0.112112,VALID,24.3547,VALID,8,VALID,0.205078,
2012-07-21, 00:29:04,VALID,1011.28,VALID,0,VALID,104,VALID,0,VALID,24.3547,VALID,8,VALID,0.4,
2012-07-21, 00:30:04,VALID,1011.23,VALID,0,VALID,104,VALID,0,VALID,24.3956,VALID,8,VALID,0.3625,
2012-07-21, 00:31:04,VALID,1011.22,VALID,0,VALID,104,VALID,0,VALID,24.3956,VALID,8,VALID,0.332812,
2012-07-21, 00:32:04,VALID,1011.23,VALID,0,VALID,104,VALID,0,VALID,24.415,VALID,8,VALID,0.338281,
2012-07-21, 00:33:04,VALID,1011.23,VALID,0,VALID,104,VALID,0,VALID,24.3956,VALID,8,VALID,0.108203,
2012-07-21, 00:34:04,VALID,1011.23,VALID,0,VALID,104,VALID,0.112112,VALID,24.3742,VALID,8,VALID,0,
2012-07-21, 00:35:04,VALID,1011.25,VALID,0,VALID,104,VALID,0,VALID,24.3566,VALID,8,VALID,0,
2012-07-21, 00:36:04,VALID,1011.26,VALID,0,VALID,104,VALID,0,VALID,24.3566,VALID,8,VALID,0,
2012-07-21, 00:37:04,VALID,1011.25,VALID,0,VALID,104,VALID,0,VALID,24.3566,VALID,8,VALID,0,
2012-07-21, 00:38:04,VALID,1011.21,VALID,0,VALID,104,VALID,0,VALID,24.3761,VALID,8,VALID,0,
2012-07-21, 00:39:04,VALID,1011.24,VALID,0,VALID,104,VALID,0,VALID,24.3761,VALID,8,VALID,0,
2012-07-21, 00:40:04,VALID,1011.23,VALID,0,VALID,104,VALID,0,VALID,24.3761,VALID,8,VALID,0,
2012-07-21, 00:41:04,VALID,1011.24,VALID,0,VALID,104,VALID,0,VALID,24.3761,VALID,8,VALID,0,
2012-07-21, 00:42:04,VALID,1011.24,VALID,0,VALID,104,VALID,0,VALID,24.415,VALID,8,VALID,0,
2012-07-21, 00:43:04,VALID,1011.22,VALID,0,VALID,104,VALID,0,VALID,24.3937,VALID,8,VALID,0,
2012-07-21, 00:44:04,VALID,1011.2,VALID,0,VALID,104,VALID,0,VALID,24.4345,VALID,8,VALID,0,
2012-07-21, 00:45:04,VALID,1011.23,VALID,0,VALID,104,VALID,0,VALID,24.454,VALID,8,VALID,0,
2012-07-21, 00:46:04,VALID,1011.21,VALID,0,VALID,104,VALID,0,VALID,24.493,VALID,8,VALID,0.331641,
2012-07-21, 00:47:04,VALID,1011.23,VALID,0,VALID,104,VALID,0,VALID,24.5106,VALID,8,VALID,0.41875,
2012-07-21, 00:48:04,VALID,1011.23,VALID,0,VALID,104,VALID,0,VALID,24.532,VALID,8,VALID,0.551562,
2012-07-21, 00:49:04,VALID,1011.21,VALID,0,VALID,104,VALID,0.112112,VALID,24.571,VALID,8,VALID,0.144922,
2012-07-21, 00:50:04,VALID,1011.21,VALID,0,VALID,104,VALID,0,VALID,24.5301,VALID,8,VALID,0.139453,
2012-07-21, 00:51:04,VALID,1011.2,VALID,0,VALID,104,VALID,0,VALID,24.5515,VALID,8,VALID,0.0597656,
2012-07-21, 00:52:04,VALID,1011.21,VALID,0,VALID,104,VALID,0,VALID,24.5515,VALID,8,VALID,0.166406,
2012-07-21, 00:53:04,VALID,1011.18,VALID,0,VALID,104,VALID,0,VALID,24.571,VALID,8,VALID,0.241406,
2012-07-21, 00:54:04,VALID,1011.15,VALID,0,VALID,104,VALID,0,VALID,24.5515,VALID,8,VALID,0.0359375,
2012-07-21, 00:55:04,VALID,1011.17,VALID,0,VALID,104,VALID,0,VALID,24.571,VALID,8,VALID,0,
2012-07-21, 00:56:04,VALID,1011.16,VALID,0,VALID,104,VALID,0,VALID,24.5496,VALID,8,VALID,0.0015625,
2012-07-21, 00:57:04,VALID,1011.14,VALID,0,VALID,104,VALID,0,VALID,24.5515,VALID,8,VALID,0.205859,
2012-07-21, 00:58:05,VALID,1011.16,VALID,0,VALID,104,VALID,0,VALID,24.5515,VALID,8,VALID,0.189063,
2012-07-21, 00:59:04,VALID,1011.16,VALID,0,VALID,104,VALID,0,VALID,24.5301,VALID,8,VALID,0.0761719,
2012-07-21, 01:00:04,VALID,1011.14,VALID,0,VALID,104,VALID,0,VALID,24.532,VALID,8,VALID,0,
2012-07-21, 01:01:04,VALID,1011.12,VALID,0,VALID,104,VALID,0,VALID,24.5106,VALID,8,VALID,0,
2012-07-21, 01:02:05,VALID,1011.09,VALID,0,VALID,104,VALID,0,VALID,24.5106,VALID,8,VALID,0.284766,
2012-07-21, 01:03:05,VALID,1011.08,VALID,0,VALID,104,VALID,0,VALID,24.5106,VALID,8,VALID,0.075,
2012-07-21, 01:04:05,VALID,1011.09,VALID,0,VALID,104,VALID,0,VALID,24.4911,VALID,8,VALID,0,
2012-07-21, 01:05:05,VALID,1011.09,VALID,0,VALID,104,VALID,0,VALID,24.5125,VALID,8,VALID,0.046875,
2012-07-21, 01:06:05,VALID,1011.08,VALID,0,VALID,104,VALID,0,VALID,24.5106,VALID,8,VALID,0,
2012-07-21, 01:07:05,VALID,1011.08,VALID,0,VALID,104,VALID,0,VALID,24.5106,VALID,8,VALID,0.413672,
2012-07-21, 01:08:05,VALID,1011.09,VALID,0,VALID,104,VALID,0,VALID,24.5106,VALID,8,VALID,0.376172,
2012-07-21, 01:09:05,VALID,1011.07,VALID,0,VALID,104,VALID,0,VALID,24.5106,VALID,8,VALID,0.462891,
2012-07-21, 01:10:05,VALID,1011.06,VALID,0,VALID,104,VALID,0,VALID,24.5125,VALID,8,VALID,0.208594,
2012-07-21, 01:11:05,VALID,1011.04,VALID,0,VALID,104,VALID,0,VALID,24.5125,VALID,8,VALID,0,
2012-07-21, 01:12:05,VALID,1011.03,VALID,0,VALID,104,VALID,0,VALID,24.4911,VALID,8,VALID,0,
2012-07-21, 01:13:05,VALID,1011.05,VALID,0,VALID,104,VALID,0,VALID,24.493,VALID,8,VALID,0,
2012-07-21, 01:14:05,VALID,1011.03,VALID,0,VALID,104,VALID,0,VALID,24.4522,VALID,8,VALID,0,
2012-07-21, 01:15:05,VALID,1010.99,VALID,0,VALID,104,VALID,0,VALID,24.4735,VALID,8,VALID,0,
2012-07-21, 01:16:05,VALID,1011,VALID,0,VALID,104,VALID,0,VALID,24.4735,VALID,8,VALID,0,
2012-07-21, 01:17:05,VALID,1011,VALID,0,VALID,104,VALID,0,VALID,24.454,VALID,8,VALID,0,
2012-07-21, 01:18:05,VALID,1010.96,VALID,0,VALID,104,VALID,0,VALID,24.4735,VALID,8,VALID,0,
2012-07-21, 01:19:05,VALID,1010.95,VALID,0,VALID,104,VALID,0,VALID,24.454,VALID,8,VALID,0,
2012-07-21, 01:20:05,VALID,1010.95,VALID,0,VALID,104,VALID,0,VALID,24.4132,VALID,8,VALID,0,
2012-07-21, 01:21:05,VALID,1010.94,VALID,0,VALID,104,VALID,0,VALID,24.3937,VALID,8,VALID,0.126563,
2012-07-21, 01:22:05,VALID,1010.95,VALID,0,VALID,104,VALID,0,VALID,24.4345,VALID,8,VALID,0.0285156,
2012-07-21, 01:23:05,VALID,1010.96,VALID,0,VALID,104,VALID,0,VALID,24.4132,VALID,8,VALID,0.3,
2012-07-21, 01:24:05,VALID,1010.95,VALID,0,VALID,104,VALID,0,VALID,24.454,VALID,2,VALID,0.669141,
2012-07-21, 01:25:05,VALID,1010.98,VALID,0,VALID,104,VALID,0,VALID,24.454,VALID,360,VALID,0.135156,
2012-07-21, 01:26:05,VALID,1010.95,VALID,0,VALID,104,VALID,0,VALID,24.454,VALID,360,VALID,0,
2012-07-21, 01:27:05,VALID,1010.94,VALID,0,VALID,104,VALID,0,VALID,24.4345,VALID,360,VALID,0,
2012-07-21, 01:28:05,VALID,1010.93,VALID,0,VALID,104,VALID,0,VALID,24.415,VALID,360,VALID,0,
2012-07-21, 01:29:05,VALID,1010.91,VALID,0,VALID,104,VALID,0,VALID,24.3956,VALID,360,VALID,0,
2012-07-21, 01:30:05,VALID,1010.9,VALID,0,VALID,104,VALID,0,VALID,24.3742,VALID,360,VALID,0,
2012-07-21, 01:31:05,VALID,1010.88,VALID,0,VALID,104,VALID,0,VALID,24.3742,VALID,360,VALID,0,
2012-07-21, 01:32:05,VALID,1010.89,VALID,0,VALID,104,VALID,0,VALID,24.3761,VALID,360,VALID,0,
2012-07-21, 01:33:05,VALID,1010.86,VALID,0,VALID,104,VALID,0.112112,VALID,24.3547,VALID,360,VALID,0,
2012-07-21, 01:34:05,VALID,1010.85,VALID,0,VALID,104,VALID,0,VALID,24.3761,VALID,360,VALID,0,
2012-07-21, 01:35:05,VALID,1010.81,VALID,0,VALID,104,VALID,0,VALID,24.3761,VALID,360,VALID,0,
2012-07-21, 01:36:05,VALID,1010.76,VALID,0,VALID,104,VALID,0,VALID,24.3742,VALID,360,VALID,0.0503906,
2012-07-21, 01:37:05,VALID,1010.76,VALID,0,VALID,104,VALID,0.112112,VALID,24.3742,VALID,360,VALID,0,
2012-07-21, 01:38:05,VALID,1010.73,VALID,0,VALID,104,VALID,0.112112,VALID,24.3547,VALID,360,VALID,0,
2012-07-21, 01:39:05,VALID,1010.75,VALID,0,VALID,104,VALID,0.112112,VALID,24.3547,VALID,360,VALID,0,
2012-07-21, 01:40:05,VALID,1010.74,VALID,0,VALID,104,VALID,0,VALID,24.3371,VALID,360,VALID,0,
2012-07-21, 01:41:05,VALID,1010.71,VALID,0,VALID,104,VALID,0,VALID,24.3371,VALID,360,VALID,0,
2012-07-21, 01:42:05,VALID,1010.68,VALID,0,VALID,104,VALID,0.112112,VALID,24.3158,VALID,360,VALID,0,
2012-07-21, 01:43:05,VALID,1010.68,VALID,0,VALID,104,VALID,0.112112,VALID,24.3158,VALID,360,VALID,0,
2012-07-21, 01:44:05,VALID,1010.68,VALID,0,VALID,104,VALID,0,VALID,24.3371,VALID,360,VALID,0,
2012-07-21, 01:45:05,VALID,1010.66,VALID,0,VALID,104,VALID,0.112112,VALID,24.3176,VALID,360,VALID,0,
2012-07-21, 01:46:05,VALID,1010.64,VALID,0,VALID,104,VALID,0.112112,VALID,24.2963,VALID,360,VALID,0,
2012-07-21, 01:47:05,VALID,1010.62,VALID,0,VALID,104,VALID,0.112112,VALID,24.2963,VALID,360,VALID,0,
2012-07-21, 01:48:05,VALID,1010.59,VALID,0,VALID,104,VALID,0.112112,VALID,24.2768,VALID,360,VALID,0,
2012-07-21, 01:49:05,VALID,1010.6,VALID,0,VALID,104,VALID,0,VALID,24.2768,VALID,360,VALID,0,
2012-07-21, 01:50:05,VALID,1010.57,VALID,0,VALID,104,VALID,0,VALID,24.2786,VALID,360,VALID,0,
2012-07-21, 01:51:05,VALID,1010.6,VALID,0,VALID,104,VALID,0,VALID,24.2591,VALID,360,VALID,0,
2012-07-21, 01:52:05,VALID,1010.58,VALID,0,VALID,104,VALID,0,VALID,24.2378,VALID,360,VALID,0,
2012-07-21, 01:53:05,VALID,1010.58,VALID,0,VALID,104,VALID,0,VALID,24.2183,VALID,360,VALID,0,
2012-07-21, 01:54:05,VALID,1010.57,VALID,0,VALID,104,VALID,0,VALID,24.2396,VALID,360,VALID,0,
2012-07-21, 01:55:05,VALID,1010.59,VALID,0,VALID,104,VALID,0,VALID,24.2378,VALID,360,VALID,0,
2012-07-21, 01:56:05,VALID,1010.58,VALID,0,VALID,104,VALID,0,VALID,24.2573,VALID,360,VALID,0,
2012-07-21, 01:57:05,VALID,1010.61,VALID,0,VALID,104,VALID,0,VALID,24.2786,VALID,360,VALID,0,
2012-07-21, 01:58:05,VALID,1010.59,VALID,0,VALID,104,VALID,0.112112,VALID,24.2981,VALID,360,VALID,0,
2012-07-21, 01:59:05,VALID,1010.6,VALID,0,VALID,104,VALID,0,VALID,24.2573,VALID,360,VALID,0,
2012-07-21, 02:00:05,VALID,1010.58,VALID,0,VALID,104,VALID,0,VALID,24.2786,VALID,360,VALID,0,
2012-07-21, 02:01:05,VALID,1010.58,VALID,0,VALID,104,VALID,0.112112,VALID,24.2981,VALID,360,VALID,0,
2012-07-21, 02:02:05,VALID,1010.57,VALID,0,VALID,104,VALID,0,VALID,24.2768,VALID,360,VALID,0,
2012-07-21, 02:03:05,VALID,1010.57,VALID,0,VALID,104,VALID,0,VALID,24.2981,VALID,360,VALID,0,
2012-07-21, 02:04:05,VALID,1010.58,VALID,0,VALID,104,VALID,0,VALID,24.2963,VALID,360,VALID,0,
2012-07-21, 02:05:05,VALID,1010.58,VALID,0,VALID,104,VALID,0.112112,VALID,24.3176,VALID,360,VALID,0,
2012-07-21, 02:06:05,VALID,1010.58,VALID,0,VALID,104,VALID,0,VALID,24.3176,VALID,360,VALID,0,
2012-07-21, 02:07:05,VALID,1010.57,VALID,0,VALID,104,VALID,0,VALID,24.3566,VALID,360,VALID,0.236328,
2012-07-21, 02:08:05,VALID,1010.56,VALID,0,VALID,104,VALID,0,VALID,24.3566,VALID,360,VALID,0.0890625,
2012-07-21, 02:09:05,VALID,1010.53,VALID,0,VALID,104,VALID,0,VALID,24.3352,VALID,360,VALID,0,
2012-07-21, 02:10:05,VALID,1010.49,VALID,0,VALID,104,VALID,0,VALID,24.3352,VALID,360,VALID,0,
2012-07-21, 02:11:05,VALID,1010.48,VALID,0,VALID,104,VALID,0,VALID,24.3566,VALID,360,VALID,0,
2012-07-21, 02:12:05,VALID,1010.45,VALID,0,VALID,104,VALID,0.112112,VALID,24.3352,VALID,360,VALID,0,
2012-07-21, 02:13:05,VALID,1010.49,VALID,0,VALID,104,VALID,0,VALID,24.3371,VALID,360,VALID,0,
2012-07-21, 02:14:05,VALID,1010.48,VALID,0,VALID,104,VALID,0,VALID,24.3566,VALID,360,VALID,0,
2012-07-21, 02:15:05,VALID,1010.49,VALID,0,VALID,104,VALID,0.112112,VALID,24.3566,VALID,360,VALID,0,
2012-07-21, 02:16:05,VALID,1010.47,VALID,0,VALID,104,VALID,0,VALID,24.3371,VALID,360,VALID,0.0429688,
2012-07-21, 02:17:05,VALID,1010.5,VALID,0,VALID,104,VALID,0.112112,VALID,24.2963,VALID,360,VALID,0.0121094,
2012-07-21, 02:18:05,VALID,1010.5,VALID,0,VALID,104,VALID,0,VALID,24.2981,VALID,360,VALID,0,
2012-07-21, 02:19:05,VALID,1010.5,VALID,0,VALID,104,VALID,0,VALID,24.2573,VALID,360,VALID,0,
2012-07-21, 02:20:05,VALID,1010.47,VALID,0,VALID,104,VALID,0,VALID,24.2573,VALID,360,VALID,0,
2012-07-21, 02:21:05,VALID,1010.44,VALID,0,VALID,104,VALID,0,VALID,24.2786,VALID,360,VALID,0,
2012-07-21, 02:22:05,VALID,1010.46,VALID,0,VALID,104,VALID,0,VALID,24.2786,VALID,360,VALID,0,
2012-07-21, 02:23:05,VALID,1010.45,VALID,0,VALID,104,VALID,0,VALID,24.2786,VALID,360,VALID,0,
2012-07-21, 02:24:05,VALID,1010.46,VALID,0,VALID,104,VALID,0,VALID,24.2591,VALID,360,VALID,0,
2012-07-21, 02:25:05,VALID,1010.45,VALID,0,VALID,104,VALID,0,VALID,24.2573,VALID,360,VALID,0,
2012-07-21, 02:26:05,VALID,1010.46,VALID,0,VALID,104,VALID,0,VALID,24.2396,VALID,360,VALID,0,
2012-07-21, 02:27:05,VALID,1010.47,VALID,0,VALID,104,VALID,0,VALID,24.1793,VALID,360,VALID,0.0148437,
2012-07-21, 02:28:05,VALID,1010.47,VALID,0,VALID,104,VALID,0,VALID,24.2007,VALID,360,VALID,0.472266,
2012-07-21, 02:29:05,VALID,1010.45,VALID,0,VALID,104,VALID,0,VALID,24.1812,VALID,360,VALID,0.346484,
2012-07-21, 02:30:05,VALID,1010.48,VALID,0,VALID,104,VALID,0,VALID,24.1404,VALID,360,VALID,0.119141,
2012-07-21, 02:31:05,VALID,1010.5,VALID,0,VALID,104,VALID,0,VALID,24.1404,VALID,360,VALID,0,
2012-07-21, 02:32:05,VALID,1010.5,VALID,0,VALID,104,VALID,0,VALID,24.1599,VALID,360,VALID,0,
2012-07-21, 02:33:05,VALID,1010.5,VALID,0,VALID,104,VALID,0.112112,VALID,24.2007,VALID,360,VALID,0,
2012-07-21, 02:34:05,VALID,1010.5,VALID,0,VALID,104,VALID,0,VALID,24.1793,VALID,360,VALID,0,
2012-07-21, 02:35:05,VALID,1010.46,VALID,0,VALID,104,VALID,0.112112,VALID,24.2007,VALID,360,VALID,0,
2012-07-21, 02:36:05,VALID,1010.48,VALID,0,VALID,104,VALID,0.112112,VALID,24.1793,VALID,360,VALID,0.0597656,
2012-07-21, 02:37:05,VALID,1010.46,VALID,0,VALID,104,VALID,0.112112,VALID,24.1988,VALID,360,VALID,0.175391,
2012-07-21, 02:38:05,VALID,1010.48,VALID,0,VALID,104,VALID,0,VALID,24.1988,VALID,360,VALID,0,
2012-07-21, 02:39:05,VALID,1010.47,VALID,0,VALID,104,VALID,0,VALID,24.2007,VALID,360,VALID,0,
2012-07-21, 02:40:05,VALID,1010.47,VALID,0,VALID,104,VALID,0.112112,VALID,24.1988,VALID,360,VALID,0,
2012-07-21, 02:41:05,VALID,1010.44,VALID,0,VALID,104,VALID,0,VALID,24.2202,VALID,360,VALID,0.0175781,
2012-07-21, 02:42:05,VALID,1010.44,VALID,0,VALID,104,VALID,0.112112,VALID,24.2007,VALID,360,VALID,0.0835937,
2012-07-21, 02:43:05,VALID,1010.42,VALID,0,VALID,104,VALID,0.112112,VALID,24.1793,VALID,360,VALID,0.0078125,
2012-07-21, 02:44:05,VALID,1010.42,VALID,0,VALID,104,VALID,0,VALID,24.2202,VALID,360,VALID,0,
2012-07-21, 02:45:05,VALID,1010.41,VALID,0,VALID,104,VALID,0.112112,VALID,24.2007,VALID,360,VALID,0,
2012-07-21, 02:46:05,VALID,1010.4,VALID,0,VALID,104,VALID,0,VALID,24.1988,VALID,360,VALID,0,
2012-07-21, 02:47:05,VALID,1010.39,VALID,0,VALID,104,VALID,0.112112,VALID,24.2007,VALID,360,VALID,0,
2012-07-21, 02:48:05,VALID,1010.39,VALID,0,VALID,104,VALID,0,VALID,24.1812,VALID,360,VALID,0,
2012-07-21, 02:49:05,VALID,1010.37,VALID,0,VALID,104,VALID,0,VALID,24.1812,VALID,360,VALID,0,
2012-07-21, 02:50:05,VALID,1010.39,VALID,0,VALID,104,VALID,0,VALID,24.1812,VALID,360,VALID,0,
2012-07-21, 02:51:05,VALID,1010.37,VALID,0,VALID,104,VALID,0.112112,VALID,24.1812,VALID,360,VALID,0,
2012-07-21, 02:52:05,VALID,1010.35,VALID,0,VALID,104,VALID,0.112112,VALID,24.1812,VALID,360,VALID,0,
2012-07-21, 02:53:05,VALID,1010.36,VALID,0,VALID,104,VALID,0,VALID,24.1599,VALID,360,VALID,0,
2012-07-21, 02:54:05,VALID,1010.36,VALID,0,VALID,104,VALID,0.112112,VALID,24.2007,VALID,360,VALID,0,
2012-07-21, 02:55:05,VALID,1010.32,VALID,0,VALID,104,VALID,0.112112,VALID,24.2007,VALID,360,VALID,0,
2012-07-21, 02:56:05,VALID,1010.32,VALID,0,VALID,104,VALID,0,VALID,24.1793,VALID,360,VALID,0,
2012-07-21, 02:57:05,VALID,1010.31,VALID,0,VALID,104,VALID,0.112112,VALID,24.2202,VALID,360,VALID,0,
2012-07-21, 02:58:05,VALID,1010.31,VALID,0,VALID,104,VALID,0,VALID,24.2007,VALID,360,VALID,0,
2012-07-21, 02:59:05,VALID,1010.33,VALID,0,VALID,104,VALID,0,VALID,24.1988,VALID,360,VALID,0,
2012-07-21, 03:00:05,VALID,1010.33,VALID,0,VALID,104,VALID,0,VALID,24.2202,VALID,360,VALID,0,
2012-07-21, 03:01:05,VALID,1010.35,VALID,0,VALID,104,VALID,0.112112,VALID,24.1793,VALID,360,VALID,0,
2012-07-21, 03:02:05,VALID,1010.32,VALID,0,VALID,104,VALID,0.112112,VALID,24.1988,VALID,360,VALID,0,
2012-07-21, 03:03:05,VALID,1010.33,VALID,0,VALID,104,VALID,0.112112,VALID,24.2396,VALID,360,VALID,0,
2012-07-21, 03:04:05,VALID,1010.29,VALID,0,VALID,104,VALID,0.112112,VALID,24.2183,VALID,360,VALID,0,
2012-07-21, 03:05:05,VALID,1010.28,VALID,0,VALID,104,VALID,0.112112,VALID,24.2183,VALID,360,VALID,0,
2012-07-21, 03:06:05,VALID,1010.3,VALID,0,VALID,104,VALID,0,VALID,24.1988,VALID,360,VALID,0,
2012-07-21, 03:07:05,VALID,1010.27,VALID,0,VALID,104,VALID,0,VALID,24.1793,VALID,360,VALID,0,
2012-07-21, 03:08:05,VALID,1010.27,VALID,0,VALID,104,VALID,0,VALID,24.2202,VALID,360,VALID,0,
2012-07-21, 03:09:05,VALID,1010.26,VALID,0,VALID,104,VALID,0,VALID,24.1988,VALID,360,VALID,0,
2012-07-21, 03:10:05,VALID,1010.25,VALID,0,VALID,104,VALID,0.112112,VALID,24.1812,VALID,360,VALID,0,
2012-07-21, 03:11:05,VALID,1010.27,VALID,0,VALID,104,VALID,0,VALID,24.1599,VALID,360,VALID,0,
2012-07-21, 03:12:05,VALID,1010.27,VALID,0,VALID,104,VALID,0,VALID,24.2007,VALID,360,VALID,0,
2012-07-21, 03:13:05,VALID,1010.24,VALID,0,VALID,104,VALID,0,VALID,24.2007,VALID,360,VALID,0,
2012-07-21, 03:14:05,VALID,1010.24,VALID,0,VALID,104,VALID,0.112112,VALID,24.1793,VALID,360,VALID,0,
2012-07-21, 03:15:05,VALID,1010.22,VALID,0,VALID,104,VALID,0.112112,VALID,24.1793,VALID,360,VALID,0,
2012-07-21, 03:16:05,VALID,1010.24,VALID,0,VALID,104,VALID,0,VALID,24.1617,VALID,360,VALID,0,
2012-07-21, 03:17:05,VALID,1010.26,VALID,0,VALID,104,VALID,0.112112,VALID,24.1422,VALID,360,VALID,0,
2012-07-21, 03:18:05,VALID,1010.26,VALID,0,VALID,104,VALID,0.112112,VALID,24.1014,VALID,360,VALID,0,
2012-07-21, 03:19:05,VALID,1010.28,VALID,0,VALID,104,VALID,0.112112,VALID,24.1032,VALID,360,VALID,0.139062,
2012-07-21, 03:20:05,VALID,1010.28,VALID,0,VALID,104,VALID,0.112112,VALID,24.0819,VALID,360,VALID,0,
2012-07-21, 03:21:05,VALID,1010.28,VALID,0,VALID,104,VALID,0,VALID,24.0624,VALID,360,VALID,0.223438,
2012-07-21, 03:22:05,VALID,1010.31,VALID,0,VALID,104,VALID,0,VALID,24.0235,VALID,360,VALID,0.328516,
2012-07-21, 03:23:05,VALID,1010.29,VALID,0,VALID,104,VALID,0.112112,VALID,24.0235,VALID,360,VALID,0.065625,
2012-07-21, 03:24:05,VALID,1010.27,VALID,0,VALID,104,VALID,0,VALID,24.0253,VALID,360,VALID,0.115234,
2012-07-21, 03:25:05,VALID,1010.3,VALID,0,VALID,104,VALID,0.112112,VALID,24.0253,VALID,360,VALID,0,
2012-07-21, 03:26:05,VALID,1010.31,VALID,0,VALID,104,VALID,0.112112,VALID,23.965,VALID,360,VALID,0.189453,
2012-07-21, 03:27:05,VALID,1010.31,VALID,0,VALID,104,VALID,0,VALID,23.9863,VALID,360,VALID,0.176953,
2012-07-21, 03:28:05,VALID,1010.3,VALID,0,VALID,104,VALID,0,VALID,23.9863,VALID,360,VALID,0.246094,
2012-07-21, 03:29:05,VALID,1010.3,VALID,0,VALID,104,VALID,0.112112,VALID,23.926,VALID,360,VALID,0.270312,
2012-07-21, 03:30:05,VALID,1010.3,VALID,0,VALID,104,VALID,0,VALID,23.8889,VALID,360,VALID,0.189844,
2012-07-21, 03:31:05,VALID,1010.32,VALID,0,VALID,104,VALID,0,VALID,23.9102,VALID,360,VALID,0.0101562,
2012-07-21, 03:32:05,VALID,1010.31,VALID,0,VALID,104,VALID,0,VALID,23.8694,VALID,360,VALID,0,
2012-07-21, 03:33:05,VALID,1010.28,VALID,0,VALID,104,VALID,0,VALID,23.8712,VALID,360,VALID,0,
2012-07-21, 03:34:05,VALID,1010.31,VALID,0,VALID,104,VALID,0,VALID,23.8499,VALID,360,VALID,0,
2012-07-21, 03:35:05,VALID,1010.3,VALID,0,VALID,104,VALID,0,VALID,23.8499,VALID,360,VALID,0,
2012-07-21, 03:36:05,VALID,1010.31,VALID,0,VALID,104,VALID,0,VALID,23.8712,VALID,360,VALID,0.0574219,
2012-07-21, 03:37:05,VALID,1010.33,VALID,0,VALID,104,VALID,0,VALID,23.8712,VALID,360,VALID,0.224219,
2012-07-21, 03:38:05,VALID,1010.32,VALID,0,VALID,104,VALID,0,VALID,23.8907,VALID,360,VALID,0.150781,
2012-07-21, 03:39:05,VALID,1010.35,VALID,0,VALID,104,VALID,0,VALID,23.8499,VALID,360,VALID,0,
2012-07-21, 03:40:05,VALID,1010.39,VALID,0,VALID,104,VALID,0,VALID,23.8499,VALID,360,VALID,0,
2012-07-21, 03:41:05,VALID,1010.4,VALID,0,VALID,104,VALID,0,VALID,23.8109,VALID,360,VALID,0,
2012-07-21, 03:42:05,VALID,1010.43,VALID,0,VALID,104,VALID,0,VALID,23.8322,VALID,360,VALID,0.123047,
2012-07-21, 03:43:04,VALID,1010.45,VALID,0,VALID,104,VALID,0,VALID,23.7932,VALID,360,VALID,0,
2012-07-21, 03:44:04,VALID,1010.44,VALID,0,VALID,104,VALID,0,VALID,23.772,VALID,360,VALID,0,
2012-07-21, 03:45:04,VALID,1010.46,VALID,0,VALID,104,VALID,0,VALID,23.7932,VALID,360,VALID,0,
2012-07-21, 03:46:04,VALID,1010.45,VALID,0,VALID,104,VALID,0,VALID,23.7932,VALID,360,VALID,0,
2012-07-21, 03:47:04,VALID,1010.42,VALID,0,VALID,104,VALID,0,VALID,23.7932,VALID,360,VALID,0,
2012-07-21, 03:48:04,VALID,1010.44,VALID,0,VALID,104,VALID,0,VALID,23.7543,VALID,360,VALID,0,
2012-07-21, 03:49:04,VALID,1010.44,VALID,0,VALID,104,VALID,0,VALID,23.7738,VALID,360,VALID,0,
2012-07-21, 03:50:04,VALID,1010.44,VALID,0,VALID,104,VALID,0,VALID,23.772,VALID,360,VALID,0,
2012-07-21, 03:51:04,VALID,1010.44,VALID,0,VALID,104,VALID,0,VALID,23.7914,VALID,360,VALID,0,
2012-07-21, 03:52:04,VALID,1010.46,VALID,0,VALID,104,VALID,0,VALID,23.8322,VALID,360,VALID,0,
2012-07-21, 03:53:04,VALID,1010.46,VALID,0,VALID,104,VALID,0,VALID,23.8109,VALID,360,VALID,0,
2012-07-21, 03:54:04,VALID,1010.5,VALID,0,VALID,104,VALID,0,VALID,23.8109,VALID,360,VALID,0,
2012-07-21, 03:55:04,VALID,1010.48,VALID,0,VALID,104,VALID,0,VALID,23.8304,VALID,360,VALID,0,
2012-07-21, 03:56:04,VALID,1010.48,VALID,0,VALID,104,VALID,0,VALID,23.8109,VALID,360,VALID,0,
2012-07-21, 03:57:04,VALID,1010.45,VALID,0,VALID,104,VALID,0,VALID,23.8109,VALID,360,VALID,0,
2012-07-21, 03:58:04,VALID,1010.44,VALID,0,VALID,104,VALID,0,VALID,23.8109,VALID,360,VALID,0,
2012-07-21, 03:59:04,VALID,1010.42,VALID,0,VALID,104,VALID,0,VALID,23.8304,VALID,360,VALID,0,
2012-07-21, 04:00:04,VALID,1010.41,VALID,0,VALID,104,VALID,0,VALID,23.8499,VALID,360,VALID,0,
2012-07-21, 04:01:04,VALID,1010.42,VALID,0,VALID,104,VALID,0,VALID,23.9102,VALID,360,VALID,0,